Salem, OR

4:29 PM PDT on March 27, 2017 (GMT -0700)
McNary

Weather History for KSLE - October, 2011

Change the Weather History Date:

Tuesday, October 4, 2011

  Actual Average Record
Temperature  
Mean Temperature 57 °F 57 °F  
Max Temperature 64 °F 70 °F 89 °F (1932)
Min Temperature 50 °F 44 °F 32 °F (1934)
Degree Days  
Heating Degree Days 8 8  
Month to date heating degree days 27 30  
Since 1 July heating degree days 103 195  
Cooling Degree Days 0 0  
Month to date cooling degree days 0 0  
Year to date cooling degree days 316 289  
Growing Degree Days 7 (Base 50)    
Moisture  
Dew Point 48 °F    
Average Humidity 74    
Maximum Humidity 96    
Minimum Humidity 52    
Precipitation  
Precipitation 0.17 in 0.06 in 1.01 in (1997)
Month to date precipitation 0.86 0.23  
Year to date precipitation 25.31 23.51  
Snow  
Snow 0.00 in - - ()
Month to date snowfall 0.0  
Snow Depth 0.00 in    
Sea Level Pressure  
Sea Level Pressure 29.64 in    
Wind  
Wind Speed 10 mph (SSE)    
Max Wind Speed 24 mph    
Max Gust Speed 32 mph    
Visibility 10 miles    
Events Rain    
T = Trace of Precipitation, MM = Missing Value Source: NWS Daily Summary

Daily Weather History Graph

Daily Weather History Graph

Search for Another Location

Airport or City:

Trip Planner

Search our weather history database for the weather conditions in past years. The results will help you decide how hot, cold, wet, or windy it might be!

Date:

Astronomy

Oct. 04, 2011 Rise Set
Actual Time 7:13 AM PDT 6:47 PM PDT
Civil Twilight 6:44 AM PDT 7:16 PM PDT
Nautical Twilight 6:10 AM PDT 7:50 PM PDT
Astronomical Twilight 5:35 AM PDT 8:24 PM PDT
Moon 3:08 PM PDT (10/4) No Moon Set
Length of Visible Light 12h 32m
Length of Day
11h 33m
First Quarter, 57% of the Moon is Illuminated
Oct 4
First Quarter
Oct 11
Full
Oct 19
Last Quarter
Oct 26
New
Nov 2
First Quarter

Hourly Weather History & Observations

Time (PDT) Temp. Dew Point Humidity Pressure Visibility Wind Dir Wind Speed Gust Speed Precip Events Conditions
12:56 AM 53.1 °F 50.0 °F 89% 29.83 in 10.0 mi South 8.1 mph - 0.00 in   Overcast
1:56 AM 52.0 °F 50.0 °F 93% 29.82 in 10.0 mi SSE 9.2 mph - N/A   Mostly Cloudy
2:56 AM 51.1 °F 48.9 °F 92% 29.81 in 10.0 mi SSE 5.8 mph - N/A   Partly Cloudy
3:56 AM 52.0 °F 48.9 °F 89% 29.80 in 10.0 mi SSE 6.9 mph - N/A   Mostly Cloudy
5:56 AM 51.1 °F 48.9 °F 92% 29.78 in 10.0 mi SE 4.6 mph - N/A   Overcast
6:56 AM 51.1 °F 48.9 °F 92% 29.77 in 10.0 mi SE 3.5 mph - N/A   Overcast
7:56 AM 52.0 °F 48.0 °F 86% 29.74 in 10.0 mi SSE 11.5 mph - N/A   Overcast
8:56 AM 53.1 °F 48.0 °F 83% 29.71 in 10.0 mi SSE 8.1 mph - N/A   Mostly Cloudy
9:56 AM 57.0 °F 48.9 °F 74% 29.69 in 10.0 mi SSE 11.5 mph - N/A   Scattered Clouds
10:56 AM 60.1 °F 48.9 °F 67% 29.67 in 10.0 mi South 15.0 mph - N/A   Scattered Clouds
12:56 PM 63.0 °F 44.1 °F 50% 29.60 in 10.0 mi South 20.7 mph 26.5 mph N/A   Mostly Cloudy
1:56 PM 63.0 °F 45.0 °F 52% 29.57 in 10.0 mi South 12.7 mph 21.9 mph N/A   Mostly Cloudy
2:56 PM 59.0 °F 46.9 °F 64% 29.55 in 10.0 mi South 8.1 mph - 0.00 in   Mostly Cloudy
3:56 PM 57.0 °F 48.9 °F 74% 29.52 in 10.0 mi South 3.5 mph - 0.01 in Rain Light Rain
4:56 PM 55.9 °F 50.0 °F 80% 29.52 in 7.0 mi SSE 6.9 mph - 0.03 in Rain Rain
6:56 PM 53.1 °F 50.0 °F 89% 29.49 in 7.0 mi SE 12.7 mph - 0.07 in Rain Rain
7:56 PM 53.1 °F 50.0 °F 89% 29.46 in 7.0 mi SE 9.2 mph - 0.04 in Rain Light Rain
8:56 PM 53.1 °F 50.0 °F 89% 29.45 in 10.0 mi SSE 6.9 mph - 0.00 in Rain Light Rain
10:56 PM 51.1 °F 48.0 °F 89% 29.46 in 10.0 mi South 6.9 mph - 0.08 in Rain Light Rain
11:56 PM 50.0 °F 46.0 °F 86% 29.47 in 10.0 mi SSW 3.5 mph - N/A   Scattered Clouds